Regional Weather Roundup
Issued by NWS Grand Forks, ND

Home | Current Version | Previous Version | Text Only | Print | Product List | Glossary Off
Versions: 1 2 3 4 5 6 7 8 9 10 11 12 13 14 15 16 17 18 19 20 21 22 23 24 25 26 27 28 29 30 31 32 33 34 35 36 37 38 39 40 41 42 43 44 45 46 47 48 49 50

000
ASUS43 KFGF 071410
RWRFGF
PRAIRIE TO PINES  WEATHER ROUNDUP
NATIONAL WEATHER SERVICE EASTERN NORTH DAKOTA/GRAND FORKS ND
800 AM CST SUN FEB 07 2016

 **SATELLITE DATA USED TO AUGMENT SKY COVER AT AUTOMATED STATIONS**
 *****  WEATHER ACROSS EASTERN NORTH DAKOTA  *****

CITY           SKY/WX    TMP DP  RH WIND       PRES   REMARKS
GRAND FORKS    CLOUDY    36  29  75 NW22      29.53R
GRAND FRKS AFB MOCLDY    36  28  75 NW17G29   29.54R
GRAND FRKS NWS   N/A     32 N/A N/A NW16        N/A  WCI  21
DEVILS LAKE    CLOUDY    33  30  88 NW31G37   29.57S WCI  19
FARGO          CLOUDY    36  27  69 W21       29.60R
WAHPETON ARPT  MOSUNNY   34  27  75 W21G28    29.64S WCI  22
$$

 ***** WEATHER ACROSS CENTRAL AND WESTERN NORTH DAKOTA  *****

CITY           SKY/WX    TMP DP  RH WIND       PRES   REMARKS
BISMARCK       FLURRIES  35  28  75 W21G39    29.80R WCI  24
MINOT          FLURRIES  33  20  58 NW33G47   29.75R WCI  18
JAMESTOWN      CLOUDY    34  26  72 NW26G36   29.64R WCI  21
MINOT AFB      NOT AVBL
GARRISON         N/A     30  24  78 NW33G46   29.78R WCI  14
WILLISTON      CLOUDY    31  23  72 NW36G49   29.97R WCI  15
DICKINSON      FLURRIES  28  22  78 NW30G41   29.90R WCI  12
HETTINGER      CLOUDY    30  19  63 NW32G43   29.95R WCI  14
$$

 *****  OTHER AIRPORT OBSERVATIONS IN OUR AREA  *****

CITY           SKY/WX    TMP DP  RH WIND       PRES   REMARKS
WALHALLA       LGT RAIN  30  30 100 N20G31    29.56R WCI  18
GRAFTON AIRPOR CLOUDY    36  32  87 NW18G26   29.54R
VALLEY CITY AR FLURRIES  34  28  80 W25G40    29.65R WCI  21
CANDO          NOT AVBL
CAVALIER APRT  CLOUDY    32  28  86 N23G30    29.54R WCI  19
GWINNER        PTSUNNY   36  28  75 W20G30    29.69S
SHEYENNE NWR     N/A     36  25  63 W20       29.95S
ROLLA          MIX PCPN  30  27  86 NW35G43   29.61R WCI  14
 ***** THE ABOVE OBSERVATIONS ARE NON NWS ARE NOT QUALITY
       CONTROLLED AND MAY MIS-REPORT RAIN FOR SNOW...
$$

  *****  WEATHER ACROSS NORTHERN MINNESOTA  *****

CITY           SKY/WX    TMP DP  RH WIND       PRES   REMARKS
FLAG ISLAND    LGT SNOW  28  27  93 NW13      29.38R WCI  18
WARROAD        LGT SNOW  28  25  86 W12G20    29.42R WCI  18
ROSEAU         LGT SNOW  28  25  86 W14G21    29.43R WCI  17
HALLOCK        CLOUDY    30  27  86 NW18G24   29.51R WCI  18
THF RVR FALLS  CLOUDY    34  28  80 W15       29.49R WCI  24
BAUDETTE       CLOUDY    31  26  82 W12       29.38R WCI  22
WASKISH        CLOUDY    34  30  86 W16G22    29.41R WCI  23
CROOKSTON      FLURRIES  32  32 100 NW20      29.53R WCI  20
STEPHEN NDAWN    N/A     32  28  86 N20         N/A  WCI  20
GREENBUSH NDAW   N/A     28  25  86 NW20        N/A  WCI  15
$$
  *****  WEATHER ACROSS CENTRAL AND WEST MINNESOTA  *****

CITY           SKY/WX    TMP DP  RH WIND       PRES   REMARKS
FOSSTON        LGT SNOW  30  30 100 W16G24    29.50S WCI  19
BEMIDJI        FLURRIES  32  31  95 W17G23    29.45S WCI  21
PARK RAPIDS    LGT SNOW  33  32  96 W21       29.50S VSB 3/4 WCI  21
ELBOW LAKE     FAIR      33  27  79 NW21G32   29.64S HAZE    WCI  21
WADENA         CLOUDY    34  28  80 W16G24    29.54S WCI  23
DETROIT LAKES  CLOUDY    34  30  86 W20G29    29.56S WCI  22
MOORHEAD       CLOUDY    36  27  69 W22G28    29.61F
FERGUS FALLS   CLEAR     34  27  75 W17G26    29.65R WCI  23
MORRIS MN      CLEAR     36  27  69 W23       29.65S
STAPLES        LGT SNOW  32  30  93 W15G23    29.54S WCI  22
$$
  *****  WEATHER ELSEWHERE ACROSS MINNESOTA  *****

CITY           SKY/WX    TMP DP  RH WIND       PRES   REMARKS
DULUTH         LGT SNOW  33  31  92 SW9       29.43S FOG
INTRNTL FALLS  CLOUDY    33  32  96 SW5       29.37S
ELY            LGT SNOW  32  30  93 S3        29.40F
CLOQUET        LGT SNOW  34  32  93 SW7       29.44F
WHEATON        PTCLDY    37  27  65 W22G30    29.69S
BRAINERD       LGT SNOW  33  31  92 W13       29.52R FOG     WCI  24
HIBBING        CLOUDY    31  31 100 SW3       29.40S
ALEXANDRIA     FLURRIES  34  25  69 W24G33    29.61R WCI  21
SAINT CLOUD    CLOUDY    37  27  67 W23G31    29.58S
MINNEAPOLIS    MOCLDY    37  27  67 W17       29.63S
$$

  *****  WEATHER ACROSS SOUTH DAKOTA  *****

CITY           SKY/WX    TMP DP  RH WIND       PRES   REMARKS
SIOUX FALLS    CLOUDY    35  26  69 W21G28    29.84F WCI  24
BROOKINGS      MOCLDY    34  26  72 W24G30    29.77S WCI  21
WATERTOWN      PTCLDY    34  24  67 W22G32    29.74S WCI  22
HURON          PTCLDY    35  27  72 W22       29.86S WCI  23
SISSETON         N/A     35  24  64 NW24G31   29.68S WCI  23
ABERDEEN       CLOUDY    37  24  59 W18       29.78F
MITCHELL       CLOUDY    37  28  70 W21       29.90F
PIERRE         CLEAR     35  21  56 W26G36    29.92F WCI  22
MOBRIDGE       MOCLDY    35  24  64 NW28G41   29.82R WCI  22
RAPID CITY     CLEAR     34  10  37 NW38G48   30.11R WCI  19
$$

  *****  SOME WEATHER IN NEARBY STATES *****

CITY           SKY/WX    TMP DP  RH WIND       PRES   REMARKS
GLASGOW MT     CLEAR     29  18  63 NW28G35   30.18R WCI  14
GREAT FALLS MT CLEAR     20  14  77 SW12      30.39R WCI   8
CHEYENNE WY    CLEAR     25  17  72 N13       30.19R WCI  14
SCOTTSBLUFF NE CLOUDY    31  24  75 NW14      30.24S WCI  21
OMAHA NE       CLOUDY    38  25  59 NW17      29.96R
DES MOINES IA  MOCLDY    38  26  62 NW15      29.88R
DAVENPORT IA   CLOUDY    37  28  70 SW14      29.81F
CHICAGO IL     CLOUDY    38  29  70 SW15G22   29.82F
EAU CLAIRE WI  CLOUDY    33  27  78 SW10      29.60F WCI  25
LA CROSSE WI   CLEAR     33  26  75 S12       29.69F WCI  24
$$

  *****  SOME NATIONAL WEATHER *****

CITY           SKY/WX    TMP DP  RH WIND       PRES   REMARKS
LA GUARDIA NY  CLOUDY    38  23  55 CALM      30.18F
RALEIGH NC     CLOUDY    38  25  59 N6        30.10S
ATLANTA GA     MOSUNNY   36  22  56 NW7       30.16R
NEW ORLEANS LA SUNNY     42  34  73 CALM      30.31R
OKLAHOMA CITY  PTCLDY    31  26  82 SW6       30.15R
ALBUQUERQUE NM CLOUDY    34  15  46 N14       30.36R WCI  25
SALT LAKE CITY MOCLDY    24  18  77 SE7       30.54R WCI  16
LOS ANGELES CA CLEAR     52  28  39 E5        30.13R
BOISE ID       CLOUDY    28  26  92 CALM      30.54R FOG
SEATTLE WA     MOCLDY    37  35  92 CALM      30.50S
$$

*** WEATHER ACROSS MANITOBA...SASKATCHEWAN AND ONTARIO ***
                ***ONTARIO***

CITY           SKY/WX    TMP DP  RH WIND       PRES   REMARKS
GERALDTON      LGT SNOW   0  -4  85 E15       29.73S VSB 3/4 WCI -20
THUNDER BAY    LGT SNOW  25  25 100 E12G17    29.53F VSB 1   WCI  14
SIOUX LOOKOUT  LGT SNOW  14  10  85 E6G17     29.46R DRFTSNOWWCI   5
TORONTO        CLOUDY    34  27  75 S5        30.02F
BIG TROUT LK   CLEAR    -18 -24  76 E8        29.95R WCI -37
PICKLE LAKE    LGT SNOW   0  -8  71 E16G22    29.66R DRFTSNOWWCI -21
DRYDEN         FLURRIES  21  19  93 E13       29.40R WCI   9
KENORA         LGT SNOW  28  28 100 N5        29.35S VSB 3/4 WCI  23
$$
                *** MANITOBA***

CITY           SKY/WX    TMP DP  RH WIND       PRES   REMARKS
BRANDON        CLOUDY    25  18  74 NW32G46   29.67R WCI   7
DAUPHIN        LGT SNOW  16  10  79 N31G39    29.77R WCI  -5
ISLAND LAKE    NOT AVBL
PILOT MOUND      N/A     25  23  93 N26G33      N/A  WCI   9
THE PAS        CLOUDY     5  -2  72 NW16G24   29.90R WCI -14
THOMPSON       LGT SNOW  -9 -15  77 N7        29.88R WCI -24
WINNIPEG       LGT SNOW  23  21  93 NW29      29.53R DRFTSNOWWCI   6
LYNN LAKE      FLURRIES  -6 -11  77 N8        29.88R WCI -21
CHURCHILL      CLOUDY   -15 -20  76 SE9       30.16R WCI -33
$$
                ***SASKATCHEWAN***

CITY           SKY/WX    TMP DP  RH WIND       PRES   REMARKS
ESTEVAN        CLOUDY    23  18  80 NW41G54   29.88R WCI   3
KINDERSLEY     PTCLDY    21  14  73 W15       30.20R WCI   8
LLOYDMINSTER   PTCLDY    23  16  74 W22G31    30.16R WCI   8
PRINCE ALBERT  MOCLDY    19  12  73 NW18G24   30.03R WCI   4
REGINA         CLOUDY    25  19  80 NW22G32   30.00R WCI  10
YORKTON        LGT SNOW  18  14  86 NW30G40   29.85R VSB 1   WCI  -2
N. BATTLEFORD  CLEAR     23  16  74 NW16G22   30.15R WCI  10
LA RONGE       FLURRIES  12   7  79 W17       30.02R WCI  -5
SASKATOON      PTCLDY    23  18  80 NW17      30.10R WCI   9
SWIFT CURRENT  CLEAR     25  18  74 NW24G31   30.15R WCI   9
$$
NOTE: THESE ARE AUTOMATED STATIONS WITH LIMITED QUALITY CONTROL
      "FAIR" INDICATES FEW OR NO CLOUDS BELOW 12,000 FEET WITH NO
      SIGNIFICANT WEATHER AND/OR OBSTRUCTIONS TO VISIBILITY.
      SKY/WX - SKY CONDITION AND SIGNIFICANT WEATHER.
      TMP - AIR TEMPERATURE.    DP   - DEWPOINT TEMPERATURE.
      RH  - RELATIVE HUMIDITY.  PRES - PRESSURE.
      HX  - HEAT INDEX.         WCI  - WIND CHILL INDEX.
$



USA.gov is the U.S. government's official web portal to all federal, state and local government web resources and services.